Time,TemperatureF,DewpointF,PressureIn,WindDirection,WindDirectionDegrees,WindSpeedMPH,WindSpeedGustMPH,Humidity,HourlyPrecipIn,Conditions,Clouds,dailyrainin,SoftwareType,DateUTC
2013-04-30 00:00:00,53.0,28.2,-100.00,SSW,212,2.9,8.3,38,0.00,,,-99.99,HOBO +U30 +Weather +,2013-04-30 04:00:00,
2013-04-30 00:15:00,53.1,28.0,-100.00,SW,227,2.9,6.7,37,0.00,,,-99.99,HOBO +U30 +Weather +,2013-04-30 04:15:00,
2013-04-30 00:30:00,52.7,28.1,-100.00,SW,233,2.5,7.2,38,0.00,,,-99.99,HOBO +U30 +Weather +,2013-04-30 04:30:00,
2013-04-30 00:45:00,52.3,28.8,-100.00,WSW,251,2.5,6.3,40,0.00,,,-99.99,HOBO +U30 +Weather +,2013-04-30 04:45:00,
2013-04-30 01:00:00,52.2,29.0,-100.00,WSW,257,2.9,5.4,40,0.00,,,-99.99,HOBO +U30 +Weather +,2013-04-30 05:00:00,
2013-04-30 01:15:00,51.9,29.6,-100.00,SW,236,1.6,4.9,42,0.00,,,-99.99,HOBO +U30 +Weather +,2013-04-30 05:15:00,
2013-04-30 01:30:00,51.5,31.5,-100.00,SW,230,2.0,5.8,46,0.00,,,-99.99,HOBO +U30 +Weather +,2013-04-30 05:30:00,
2013-04-30 01:45:00,50.8,33.3,-100.00,SW,222,1.6,3.8,51,0.00,,,-99.99,HOBO +U30 +Weather +,2013-04-30 05:45:00,
2013-04-30 02:00:00,50.4,34.1,-100.00,SSW,209,1.3,3.4,53,0.00,,,-99.99,HOBO +U30 +Weather +,2013-04-30 06:00:00,
2013-04-30 02:15:00,50.4,34.1,-100.00,SSW,212,1.3,4.3,53,0.00,,,-99.99,HOBO +U30 +Weather +,2013-04-30 06:15:00,
2013-04-30 02:30:00,50.0,34.1,-100.00,WSW,240,1.3,3.8,54,0.00,,,-99.99,HOBO +U30 +Weather +,2013-04-30 06:30:00,
2013-04-30 02:45:00,50.0,34.2,-100.00,WSW,253,1.3,3.8,54,0.00,,,-99.99,HOBO +U30 +Weather +,2013-04-30 06:45:00,
2013-04-30 03:00:00,49.6,34.4,-100.00,West,260,0.9,2.5,55,0.00,,,-99.99,HOBO +U30 +Weather +,2013-04-30 07:00:00,
2013-04-30 03:15:00,49.5,34.5,-100.00,West,260,0.4,2.9,56,0.00,,,-99.99,HOBO +U30 +Weather +,2013-04-30 07:15:00,
2013-04-30 03:30:00,49.1,35.0,-100.00,West,260,0.0,1.3,58,0.00,,,-99.99,HOBO +U30 +Weather +,2013-04-30 07:30:00,
2013-04-30 03:45:00,48.4,34.9,-100.00,West,260,0.0,1.3,59,0.00,,,-99.99,HOBO +U30 +Weather +,2013-04-30 07:45:00,
2013-04-30 04:00:00,48.0,35.3,-100.00,West,260,0.0,0.0,61,0.00,,,-99.99,HOBO +U30 +Weather +,2013-04-30 08:00:00,
2013-04-30 04:15:00,47.0,34.9,-100.00,West,260,0.0,0.4,62,0.00,,,-99.99,HOBO +U30 +Weather +,2013-04-30 08:15:00,
2013-04-30 04:30:00,46.3,34.2,-100.00,West,260,0.0,0.0,62,0.00,,,-99.99,HOBO +U30 +Weather +,2013-04-30 08:30:00,
2013-04-30 04:45:00,46.4,34.8,-100.00,West,260,0.0,0.9,63,0.00,,,-99.99,HOBO +U30 +Weather +,2013-04-30 08:45:00,
2013-04-30 05:00:00,45.7,34.2,-100.00,West,260,0.0,0.0,63,0.00,,,-99.99,HOBO +U30 +Weather +,2013-04-30 09:00:00,
2013-04-30 05:15:00,46.5,35.4,-100.00,West,260,0.0,0.0,65,0.00,,,-99.99,HOBO +U30 +Weather +,2013-04-30 09:15:00,
2013-04-30 05:30:00,46.2,34.8,-100.00,West,260,0.0,0.0,64,0.00,,,-99.99,HOBO +U30 +Weather +,2013-04-30 09:30:00,
2013-04-30 05:45:00,45.9,34.4,-100.00,West,260,0.0,0.0,63,0.00,,,-99.99,HOBO +U30 +Weather +,2013-04-30 09:45:00,
2013-04-30 06:00:00,45.4,33.7,-100.00,West,260,0.0,0.0,63,0.00,,,-99.99,HOBO +U30 +Weather +,2013-04-30 10:00:00,
2013-04-30 06:15:00,46.0,34.2,-100.00,West,260,0.0,0.0,63,0.00,,,-99.99,HOBO +U30 +Weather +,2013-04-30 10:15:00,
2013-04-30 06:30:00,46.7,34.3,-100.00,West,260,0.0,0.0,61,0.00,,,-99.99,HOBO +U30 +Weather +,2013-04-30 10:30:00,
2013-04-30 06:45:00,46.2,33.9,-100.00,West,260,0.0,0.0,62,0.00,,,-99.99,HOBO +U30 +Weather +,2013-04-30 10:45:00,
2013-04-30 07:00:00,45.8,34.3,-100.00,West,260,0.0,1.3,64,0.00,,,-99.99,HOBO +U30 +Weather +,2013-04-30 11:00:00,
2013-04-30 07:15:00,46.9,34.6,-100.00,West,260,0.0,0.0,62,0.00,,,-99.99,HOBO +U30 +Weather +,2013-04-30 11:15:00,
2013-04-30 07:30:00,49.2,37.0,-100.00,West,260,0.0,1.6,62,0.00,,,-99.99,HOBO +U30 +Weather +,2013-04-30 11:30:00,
2013-04-30 07:45:00,49.2,35.3,-100.00,WSW,258,0.9,2.9,58,0.00,,,-99.99,HOBO +U30 +Weather +,2013-04-30 11:45:00,
2013-04-30 08:00:00,51.7,36.1,-100.00,WSW,256,0.9,1.6,55,0.00,,,-99.99,HOBO +U30 +Weather +,2013-04-30 12:00:00,
2013-04-30 08:15:00,52.6,35.5,-100.00,WSW,256,0.4,1.6,51,0.00,,,-99.99,HOBO +U30 +Weather +,2013-04-30 12:15:00,
2013-04-30 08:30:00,53.2,34.6,-100.00,WSW,254,0.9,2.9,49,0.00,,,-99.99,HOBO +U30 +Weather +,2013-04-30 12:30:00,
2013-04-30 08:45:00,54.8,33.8,-100.00,SSW,205,1.3,3.8,44,0.00,,,-99.99,HOBO +U30 +Weather +,2013-04-30 12:45:00,
2013-04-30 09:00:00,57.0,33.7,-100.00,South,190,1.6,3.8,41,0.00,,,-99.99,HOBO +U30 +Weather +,2013-04-30 13:00:00,
2013-04-30 09:15:00,56.8,30.1,-100.00,South,190,2.9,5.8,35,0.00,,,-99.99,HOBO +U30 +Weather +,2013-04-30 13:15:00,
2013-04-30 09:30:00,58.6,31.3,-100.00,South,170,2.9,6.7,35,0.00,,,-99.99,HOBO +U30 +Weather +,2013-04-30 13:30:00,
2013-04-30 09:45:00,60.3,29.2,-100.00,South,181,2.9,6.7,30,0.00,,,-99.99,HOBO +U30 +Weather +,2013-04-30 13:45:00,
2013-04-30 10:00:00,61.4,27.6,-100.00,SSE,163,2.5,7.4,27,0.00,,,-99.99,HOBO +U30 +Weather +,2013-04-30 14:00:00,
2013-04-30 10:15:00,61.2,27.0,-100.00,South,177,3.8,7.4,27,0.00,,,-99.99,HOBO +U30 +Weather +,2013-04-30 14:15:00,
2013-04-30 10:30:00,61.5,27.4,-100.00,South,188,3.4,9.2,27,0.00,,,-99.99,HOBO +U30 +Weather +,2013-04-30 14:30:00,
2013-04-30 10:45:00,61.6,26.7,-100.00,South,184,3.8,8.3,26,0.00,,,-99.99,HOBO +U30 +Weather +,2013-04-30 14:45:00,
2013-04-30 11:00:00,63.5,27.8,-100.00,South,187,3.8,7.4,25,0.00,,,-99.99,HOBO +U30 +Weather +,2013-04-30 15:00:00,
2013-04-30 11:15:00,63.9,27.6,-100.00,South,170,2.5,8.7,25,0.00,,,-99.99,HOBO +U30 +Weather +,2013-04-30 15:15:00,
2013-04-30 11:30:00,63.9,29.5,-100.00,SSE,161,3.8,9.2,27,0.00,,,-99.99,HOBO +U30 +Weather +,2013-04-30 15:30:00,
2013-04-30 11:45:00,65.7,31.0,-100.00,South,170,3.4,8.3,27,0.00,,,-99.99,HOBO +U30 +Weather +,2013-04-30 15:45:00,
2013-04-30 12:00:00,64.8,28.8,-100.00,ESE,104,4.5,10.3,25,0.00,,,-99.99,HOBO +U30 +Weather +,2013-04-30 16:00:00,
2013-04-30 12:15:00,65.3,26.8,-100.00,SE,126,4.3,10.7,23,0.00,,,-99.99,HOBO +U30 +Weather +,2013-04-30 16:15:00,
2013-04-30 12:30:00,64.7,30.0,-100.00,SSE,160,2.9,12.5,27,0.00,,,-99.99,HOBO +U30 +Weather +,2013-04-30 16:30:00,
2013-04-30 12:45:00,66.7,32.0,-100.00,SSE,160,1.6,7.4,27,0.00,,,-99.99,HOBO +U30 +Weather +,2013-04-30 16:45:00,
2013-04-30 13:00:00,67.8,29.9,-100.00,SE,140,0.0,0.4,24,0.00,,,-99.99,HOBO +U30 +Weather +,2013-04-30 17:00:00,
2013-04-30 13:15:00,67.8,30.8,-100.00,SW,216,0.4,9.2,25,0.00,,,-99.99,HOBO +U30 +Weather +,2013-04-30 17:15:00,
2013-04-30 13:30:00,67.8,28.5,-100.00,ESE,112,2.9,9.2,22,0.00,,,-99.99,HOBO +U30 +Weather +,2013-04-30 17:30:00,
2013-04-30 13:45:00,67.8,29.0,-100.00,South,175,2.0,10.3,23,0.00,,,-99.99,HOBO +U30 +Weather +,2013-04-30 17:45:00,
2013-04-30 14:00:00,69.4,30.1,-100.00,South,188,2.5,8.3,23,0.00,,,-99.99,HOBO +U30 +Weather +,2013-04-30 18:00:00,
2013-04-30 14:15:00,69.1,31.3,-100.00,SE,132,2.5,7.8,24,0.00,,,-99.99,HOBO +U30 +Weather +,2013-04-30 18:15:00,
2013-04-30 14:30:00,68.8,35.0,-100.00,South,175,3.4,8.7,28,0.00,,,-99.99,HOBO +U30 +Weather +,2013-04-30 18:30:00,
2013-04-30 14:45:00,70.0,33.6,-100.00,ESE,114,2.0,11.2,26,0.00,,,-99.99,HOBO +U30 +Weather +,2013-04-30 18:45:00,
2013-04-30 15:00:00,69.1,30.2,-100.00,SE,132,1.3,6.3,23,0.00,,,-99.99,HOBO +U30 +Weather +,2013-04-30 19:00:00,
2013-04-30 15:15:00,69.5,30.6,-100.00,SSE,152,3.8,9.6,23,0.00,,,-99.99,HOBO +U30 +Weather +,2013-04-30 19:15:00,
2013-04-30 15:30:00,68.1,27.3,-100.00,ESE,115,3.8,10.1,21,0.00,,,-99.99,HOBO +U30 +Weather +,2013-04-30 19:30:00,
2013-04-30 15:45:00,70.9,29.5,-100.00,East,81,2.5,7.4,21,0.00,,,-99.99,HOBO +U30 +Weather +,2013-04-30 19:45:00,
2013-04-30 16:00:00,69.1,28.2,-100.00,SE,135,3.4,10.3,21,0.00,,,-99.99,HOBO +U30 +Weather +,2013-04-30 20:00:00,
2013-04-30 16:15:00,70.6,29.1,-100.00,ESE,102,3.4,10.7,21,0.00,,,-99.99,HOBO +U30 +Weather +,2013-04-30 20:15:00,
2013-04-30 16:30:00,69.9,29.6,-100.00,SE,136,3.8,8.7,22,0.00,,,-99.99,HOBO +U30 +Weather +,2013-04-30 20:30:00,
2013-04-30 16:45:00,69.5,30.2,-100.00,ESE,114,5.4,11.2,23,0.00,,,-99.99,HOBO +U30 +Weather +,2013-04-30 20:45:00,
2013-04-30 17:00:00,68.9,31.6,-100.00,ESE,119,6.3,13.0,25,0.00,,,-99.99,HOBO +U30 +Weather +,2013-04-30 21:00:00,
2013-04-30 17:15:00,68.0,27.5,-100.00,ESE,104,5.4,11.6,21,0.00,,,-99.99,HOBO +U30 +Weather +,2013-04-30 21:15:00,
2013-04-30 17:30:00,68.3,29.0,-100.00,East,98,5.8,10.7,22,0.00,,,-99.99,HOBO +U30 +Weather +,2013-04-30 21:30:00,
2013-04-30 17:45:00,67.7,28.8,-100.00,ESE,110,5.8,11.2,23,0.00,,,-99.99,HOBO +U30 +Weather +,2013-04-30 21:45:00,
2013-04-30 18:00:00,66.9,27.3,-100.00,ESE,108,5.4,13.0,22,0.00,,,-99.99,HOBO +U30 +Weather +,2013-04-30 22:00:00,
2013-04-30 18:15:00,65.3,25.8,-100.00,ESE,112,6.3,12.5,22,0.00,,,-99.99,HOBO +U30 +Weather +,2013-04-30 22:15:00,
2013-04-30 18:30:00,64.0,26.3,-100.00,ESE,108,6.3,12.5,23,0.00,,,-99.99,HOBO +U30 +Weather +,2013-04-30 22:30:00,
2013-04-30 18:45:00,63.3,26.8,-100.00,ESE,119,5.4,11.2,24,0.00,,,-99.99,HOBO +U30 +Weather +,2013-04-30 22:45:00,
2013-04-30 19:00:00,61.5,26.7,-100.00,ESE,114,3.8,8.3,26,0.00,,,-99.99,HOBO +U30 +Weather +,2013-04-30 23:00:00,
2013-04-30 19:15:00,60.7,26.2,-100.00,ESE,121,4.3,7.8,26,0.00,,,-99.99,HOBO +U30 +Weather +,2013-04-30 23:15:00,
2013-04-30 19:30:00,59.3,26.2,-100.00,ESE,118,3.8,8.7,28,0.00,,,-99.99,HOBO +U30 +Weather +,2013-04-30 23:30:00,
2013-04-30 19:45:00,58.0,26.1,-100.00,ESE,121,3.4,7.4,29,0.00,,,-99.99,HOBO +U30 +Weather +,2013-04-30 23:45:00,
2013-04-30 20:00:00,55.8,27.3,-100.00,SE,140,2.0,5.4,33,0.00,,,-99.99,HOBO +U30 +Weather +,2013-05-01 00:00:00,
2013-04-30 20:15:00,56.6,29.2,-100.00,SE,140,2.9,7.2,34,0.00,,,-99.99,HOBO +U30 +Weather +,2013-05-01 00:15:00,
2013-04-30 20:30:00,55.0,29.9,-100.00,SSE,156,2.5,7.8,38,0.00,,,-99.99,HOBO +U30 +Weather +,2013-05-01 00:30:00,
2013-04-30 20:45:00,54.1,30.4,-100.00,SSE,161,2.0,5.8,40,0.00,,,-99.99,HOBO +U30 +Weather +,2013-05-01 00:45:00,
2013-04-30 21:00:00,53.4,30.4,-100.00,South,170,2.0,4.9,41,0.00,,,-99.99,HOBO +U30 +Weather +,2013-05-01 01:00:00,
2013-04-30 21:15:00,52.7,29.9,-100.00,South,173,1.3,3.8,41,0.00,,,-99.99,HOBO +U30 +Weather +,2013-05-01 01:15:00,
2013-04-30 21:30:00,52.3,29.6,-100.00,South,173,2.0,4.5,41,0.00,,,-99.99,HOBO +U30 +Weather +,2013-05-01 01:30:00,
2013-04-30 21:45:00,51.9,28.9,-100.00,South,171,1.6,5.4,40,0.00,,,-99.99,HOBO +U30 +Weather +,2013-05-01 01:45:00,
2013-04-30 22:00:00,51.1,28.6,-100.00,South,170,1.3,4.3,41,0.00,,,-99.99,HOBO +U30 +Weather +,2013-05-01 02:00:00,
2013-04-30 22:15:00,50.8,28.9,-100.00,South,170,0.9,3.8,42,0.00,,,-99.99,HOBO +U30 +Weather +,2013-05-01 02:15:00,
2013-04-30 22:30:00,51.1,28.5,-100.00,South,170,0.0,1.3,41,0.00,,,-99.99,HOBO +U30 +Weather +,2013-05-01 02:30:00,
2013-04-30 22:45:00,51.0,28.1,-100.00,South,170,0.4,2.5,41,0.00,,,-99.99,HOBO +U30 +Weather +,2013-05-01 02:45:00,
2013-04-30 23:00:00,48.7,27.4,-100.00,South,170,0.0,0.4,43,0.00,,,-99.99,HOBO +U30 +Weather +,2013-05-01 03:00:00,
2013-04-30 23:15:00,49.8,27.6,-100.00,South,170,0.0,1.6,41,0.00,,,-99.99,HOBO +U30 +Weather +,2013-05-01 03:15:00,
2013-04-30 23:30:00,48.4,27.6,-100.00,South,170,0.0,0.9,44,0.00,,,-99.99,HOBO +U30 +Weather +,2013-05-01 03:30:00,
2013-04-30 23:45:00,46.9,27.4,-100.00,South,170,0.0,0.0,46,0.00,,,-99.99,HOBO +U30 +Weather +,2013-05-01 03:45:00,